CZ-3B DEB, 40187

Orbit data source: Space-Track

CZ-3B DEB, 40187 is space debris in HEO originally from a launch on Mon, 19 Dec 2011 UTC launched from the Xichang Space Center, China (XSC). Debris objects in space refer to the collection of defunct objects orbiting the Earth. Examples of debris include non-operational satellites, rocket bodies, and fragments generated from explosions, collisions, or faulty payload assembly.

Loading next visibility...
Identifier
40187, 2011-077L
Orbit
HEO
Last TLE update
1 day ago
Origin
Manufacturer
CALT
Mission
Spacecraft
Bus & Motor
Unknown
Mass
Unknown
Launch date (UTC)
2011-12-19 (13 years ago)
Launch vehicle
Unknown
Launch site
Xichang Space Center, China (XSC)
Object type
Payload
Rocket body
Debris
Shape & HBR
Unknown
Radar Cross Section
Medium (>0.1 m² and <1 m²)

Expand to show TLE details & history

TLE from 1 day ago
0 CZ-3B DEB
1 40187U 11077L   25128.17102857 -.00000015  00000-0  93039-2 0  9998
2 40187  26.0528 101.1653 7354143 220.1954  51.7482  1.90956057 86858
Epoch: 2025-05-08T04:06Z
Definitive object data (Epoch: 2025-05-08T04:06:16.868Z)
Latitude
-0.00016°
Longitude
173.22568°
Altitude
22,366.591 km
Speed
3.634 km/s
True Right ascension
06h 44m 09s
True Declination
0° 00' 01"
Sunlit
Object was in daylight at TLE epoch
Visualization TLE readout
Latitude
5.35638°
Longitude
-175.9836°
Altitude
29,283.951 km
Speed
2.798 km/s
Apparent Right ascension
06h 57m 20s
Apparent Declination
-1° 09' 39"
Sunlit
Object is in daylight
Visualization observer readout
Local Sidereal Time
14:13:25
Azimuth
281.571° WNW
Elevation
-15.242°
Doppler factor
1
Orbital elements
Apogee altitude
41,254.833 km
Perigee altitude
884.107 km
Semi-major axis
27,447.607 km
Eccentricity
0.7354143
Inclination
26.0528°
RAAN
101.1653°
Arg. of periapsis
220.1954°
True anomaly
139.85126°
Mean anomaly
51.7482°
Eccentric anomaly
93.79208°
Mean motion
0.47729 °/min
BSTAR
0.0093039
Orbital period
754.25 mins
Loading maneuver chart data...
Loading SW <> Apogee altitude chart data...
Loading historical data...
Loading historical data...
Loading historical data...
Loading historical data...
Loading historical data...
Loading historical data...
Loading historical data...

CZ-3B DEB Visibility forecast

Observer location: undefined°, undefined°

Span
Click to sort rows by Start time (UTC) header in descending order
Start Az.
Max El. time (UTC)
Max El. Az.
Max El.
End time (UTC)
End Az.
559 mins2025-05-09 18:46:38.951Z99.095° ESE2025-05-10 02:21:38.951Z133.943° SE42.308°2025-05-10 04:05:38.951Z99.715° ESE
|